Location: Madingley
(52.2167°N, 0.0500°E)
Time: 20:34:25
(UTC+00:00)

Cosmos 1725 Rocket - Pass Details

Date: 15 May 2026
Orbit: 960 x 991 km, 82.9° (Epoch: 7 June)

Event Time Altitude Azimuth Distance (km) Brightness Sun altitude
Rises 20:27:00 0° 193° (SSW) 3,674 6.7 -5.5°
Reaches altitude 10° 20:29:31 10° 194° (SSW) 2,726 6.1 -5.8°
Maximum altitude 20:35:47 78° 281° (W) 1,002 4.3 -6.5°
Drops below altitude 10° 20:42:02 10° 8° (N) 2,723 6.9 -7.2°
Sets 20:44:33 0° 10° (N) 3,670 7.5 -7.5°
